User: anonymous   Login
Location: Unspecified
(0.0000°N, 0.0000°E)
Time: 01:11:51
(UTC+00:00)
Language:

Feng Yun 1-B - Orbit

View from above orbital plane
View from above orbital plane
View from above satellite
View from above satellite

Ground track
Ground track

The orbit data is extracted from the following two-line orbital elements,

1 20788U 90081A   18202.61862572 +.00000195 +00000-0 +15377-3 0  9994
2 20788 098.8152 222.4952 0017043 106.5264 253.7776 14.02679853426694
Epoch (UTC): 21 July 2018 14:50:49
Eccentricity: 0.0017043
inclination: 98.8152°
perigee height: 872 km
apogee height: 897 km
right ascension of ascending node: 222.4952°
argument of perigee: 106.5264°
revolutions per day: 14.02679853
mean anomaly at epoch: 253.7776°
orbit number at epoch: 42669

The dashed part of the orbit path shows where the satellite is in the earth's shadow,  

DLR